Location: Westley Waterless
(52.1833°N, 0.3667°E)
Time: 05:41:25
(UTC+00:00)

Daily predictions for brighter satellites

Satellite Brightness Start Highest point End
(mag) Time Altitude Azimuth Time Altitude Azimuth Time Altitude Azimuth
Cosmos 2333 Rocket 4.1 00:04:54 17° E 00:04:54 17° E 00:08:05 10° ENE
ALOS 2 4.2 00:06:52 27° WNW 00:06:52 27° WNW 00:09:34 10° NNW
USA 215 3.8 00:00:53 10° ENE 00:06:02 40° ESE 00:06:02 40° ESE
Cosmos 1447 Rocket 4.3 00:08:01 78° SW 00:08:24 83° W 00:14:37 10° N
Cosmos 2360 Rocket 3.8 00:09:55 22° E 00:09:55 22° E 00:13:38 10° NE
Cosmos 2263 Rocket 3.3 00:06:41 10° NW 00:10:39 31° W 00:10:39 31° W
Lacrosse 4 Rocket 3.3 00:15:02 24° NE 00:15:02 24° NE 00:16:47 10° NE
Cosmos 1814 Rocket 4.2 00:14:29 66° NE 00:14:29 66° NE 00:19:00 10° NNE
Cosmos 2322 Rocket 3.3 00:19:32 32° E 00:19:32 32° E 00:23:56 10° NE
Cosmos 1891 Rocket 4.3 00:15:33 10° NNW 00:21:41 76° W 00:21:58 74° SW
ATLAS 3B R/B 4.3 00:17:18 10° WNW 00:24:08 37° NNW 00:31:16 10° NE
Cosmos 2034 Rocket 4.1 00:18:15 10° N 00:24:26 63° ENE 00:25:21 56° ESE
NOSS 3-2 (C) 3.9 00:17:11 10° NW 00:24:26 80° SW 00:26:40 53° SSE
Cosmos 1513 Rocket 4.3 00:19:05 10° NNW 00:25:10 77° W 00:25:24 76° WSW
Cosmos 2219 Rocket 4.1 00:27:22 16° E 00:27:33 16° E 00:30:49 10° ENE
Cosmos 2058 Rocket 3.8 00:32:03 50° N 00:32:03 50° N 00:35:19 10° N
Cosmos 1844 3.6 00:27:43 10° NNW 00:33:32 84° ENE 00:33:46 81° ESE
SL-16 R/B 2.4 00:35:17 60° E 00:35:17 60° E 00:40:38 10° NE
H-2A R/B 3.3 00:38:31 10° N 00:41:37 35° NW 00:41:37 35° NW
USA 267 3.1 00:42:48 63° SSE 00:43:44 72° SSW 00:50:18 10° WNW
GEOS 3 Rocket 3.5 00:49:53 85° SE 00:50:03 89° NE 00:55:24 10° NW
ADEOS II 4.4 00:48:33 10° NE 00:51:09 14° E 00:53:12 11° ESE
Timation 2 Rocket 4.0 00:45:01 10° NNW 00:51:45 90° W 00:52:59 62° SSE
Meteor 2-9 4.5 00:46:36 10° NNW 00:52:03 89° W 00:52:04 89° WSW
Meteor 2-16 Rocket 4.5 00:52:36 61° SE 00:53:23 67° E 00:59:27 10° NNE
Nimbus 7 Rocket 4.2 00:48:38 10° NNE 00:54:31 78° ESE 00:55:02 72° SSE
Cosmos 2278 3.6 00:54:34 76° W 00:54:51 79° WNW 01:00:35 10° NNE
ATLAS 5 CENTAUR R/B 4.2 00:52:56 10° NW 00:55:58 19° N 00:59:24 10° NE
Cosmos 1125 Rocket 4.0 00:51:54 10° NNW 00:56:06 50° WNW 00:56:06 50° WNW
Meteor 2-21 Rocket 4.3 00:57:25 70° SSE 00:58:10 82° E 01:04:24 10° NNE
SL-16 R/B 4.2 00:53:06 10° ESE 00:58:16 29° NE 01:03:27 10° N
Cosmos 1844 Rocket 2.9 00:53:11 10° NW 00:58:03 57° W 00:58:03 57° W
Helios 1A Rocket 4.3 01:00:30 32° NW 01:00:30 32° NW 01:02:48 10° NNW
Cosmos 1980 Rocket 3.4 00:57:35 28° W 00:59:24 34° NW 01:04:34 10° NNE
Meteor 2-21 4.3 00:58:50 68° SW 00:59:31 76° WNW 01:05:46 10° N
CZ-2D R/B 3.7 00:58:37 10° NE 01:02:56 24° E 01:04:20 22° ESE
Meteor 1-5 Rocket 4.4 00:57:28 10° N 01:03:12 71° ENE 01:04:14 58° SE
Cosmos 2084 4.4 01:04:31 41° NNE 01:04:31 41° NNE 01:07:11 10° NE
Cosmos 2208 Rocket 4.0 01:09:23 77° SE 01:09:32 78° ESE 01:15:00 10° NNE
MOZ.5/SAFIR/RUBIN 5/SL-8 3.8 01:12:10 79° NE 01:12:10 79° NE 01:16:47 10° NNW
Cosmos-2242 3.5 01:14:26 53° NNW 01:14:26 53° NNW 01:17:50 10° N
Cosmos 2237 4.2 01:13:16 67° WSW 01:13:53 73° NW 01:19:37 10° NNE
Cosmos 1816 Rocket 4.3 01:16:05 64° SW 01:16:56 74° WNW 01:23:06 10° N
Cosmos 2150 Rocket 4.3 01:18:40 10° NNW 01:23:01 52° WNW 01:23:01 52° WNW
USA 238 DEB 3.8 01:16:39 10° NW 01:23:50 64° SW 01:26:01 46° S
USA 238 3.8 01:16:45 10° NW 01:23:57 64° SW 01:26:14 46° S
COSMOS 2428 4.4 01:22:41 19° SE 01:24:22 22° ESE 01:28:37 10° NE
Cosmos 2298 Rocket 4.3 01:19:16 10° NNW 01:23:54 54° W 01:23:54 54° W
Cosmos 489 Rocket 4.4 01:25:25 10° NNW 01:31:47 87° ENE 01:34:06 42° SSE
CZ-2C R/B 3.2 01:31:22 30° SE 01:33:57 56° ENE 01:39:12 10° N
Meteor 2-2 Rocket 4.2 01:33:31 62° SW 01:34:25 73° WNW 01:40:21 10° N
Cosmos 1867 4.0 01:29:25 10° NW 01:34:53 61° NE 01:40:19 10° ESE
Cosmos 836 Rocket 4.4 01:36:30 72° SW 01:37:02 83° WNW 01:42:22 10° NNE
NPP 4.1 01:32:56 10° NNE 01:38:14 54° E 01:39:31 44° SE
Tsikada Rocket 3.9 01:37:57 57° SSW 01:39:17 78° WNW 01:45:29 10° N
Cosmos 2221 2.6 01:40:19 66° E 01:40:19 66° E 01:44:28 10° NNE
Cosmos 2279 Rocket 4.0 01:34:18 10° N 01:40:36 79° E 01:42:58 41° SSE
Cosmos 158 Rocket 3.7 01:40:52 74° WSW 01:41:10 77° WNW 01:46:10 10° NNE
Cosmos 2333 4.2 01:42:17 58° S 01:43:13 70° ESE 01:48:48 10° NE
Resurs 1-4 Rocket 2.6 01:39:17 10° NNE 01:44:28 51° E 01:45:54 40° SE
Lacrosse 5 2.0 01:44:47 56° SE 01:44:51 56° SE 01:49:52 10° ENE
Cosmos 1766 Rocket 3.4 01:40:46 10° N 01:44:56 82° NNW 01:44:56 82° NNW
Cosmos 2333 Rocket 2.1 01:46:53 61° SSW 01:47:56 88° ESE 01:53:38 10° NNE
ALOS 4.4 01:44:39 10° NE 01:48:02 20° E 01:50:36 13° SE
Cosmos 44 Rocket 4.0 01:48:57 43° SE 01:49:36 45° ESE 01:54:30 10° NE
USA 215 3.2 01:43:54 10° ENE 01:50:29 85° NNW 01:53:22 37° WSW
Lacrosse 4 Rocket 2.8 01:50:59 27° NW 01:51:25 28° NW 01:54:55 10° NNE
Cosmos 2360 Rocket 2.1 01:51:39 57° SW 01:52:48 77° WNW 01:58:29 10° NNE
Cosmos 972 Rocket 4.4 01:51:41 44° SSE 01:53:03 57° ESE 01:58:05 10° NNE
Cosmos 1743 3.0 01:51:01 10° N 01:54:05 59° N 01:54:05 59° N
BlueWalker 3 2.5 01:58:05 51° E 01:58:05 51° E 02:01:02 10° E
Aureole 3 Rocket 4.2 01:52:43 10° NNW 01:56:48 33° WNW 01:56:48 33° WNW
Cosmos 2278 Rocket 2.9 01:54:41 10° NNW 02:00:16 53° NE 02:05:49 10° SE
Cosmos 2344 4.0 01:52:23 10° NW 02:00:26 81° NE 02:11:23 10° SE
Cosmos 773 Rocket 3.9 02:00:43 59° SW 02:01:45 84° WNW 02:07:04 10° NNE
IRIDIUM 106 4.3 01:56:41 10° N 02:01:57 78° E 02:03:43 43° SSE
Cosmos 1933 4.4 02:03:10 33° NW 02:03:10 33° NW 02:06:20 10° N
Cosmos 2322 Rocket 2.5 02:01:19 42° W 02:02:48 55° NW 02:08:21 10° NNE
IDEFIX/ARIANE 42P 2.5 01:59:56 10° NNE 02:05:09 86° ESE 02:06:30 52° S
NOSS 3-4 (A) 3.2 02:03:50 51° SSW 02:05:18 75° SE 02:11:27 10° NE
NOSS 3-4 (C) 3.2 02:03:53 51° SSW 02:05:20 74° SE 02:11:30 10° NE
Cosmos 1536 3.6 02:05:53 10° N 02:09:40 47° ENE 02:11:03 32° SE
Okean 3 Rocket 3.5 02:05:33 10° NNW 02:10:07 87° W 02:10:57 60° S
Cosmos 1782 4.4 02:11:03 23° NW 02:11:03 23° NW 02:13:42 10° NNW
Cosmos 2219 Rocket 2.1 02:09:03 49° SSW 02:10:38 82° ESE 02:16:15 10° NNE
MSX 3.8 02:06:08 10° NNE 02:11:58 83° ESE 02:14:09 41° S
Gbstr 26 Del rocket 4.1 02:13:49 29° SE 02:13:49 29° SE 02:16:50 10° E
H-2A R/B 3.5 02:09:35 10° N 02:13:38 60° WNW 02:13:48 60° W
ATLAS 3B R/B 4.3 02:09:45 10° NW 02:16:50 39° NNE 02:24:04 10° E
COBE Rocket 3.7 02:13:06 10° NNE 02:17:50 82° ESE 02:19:04 49° S
GP-B 4.1 02:13:50 10° NNE 02:18:04 43° E 02:20:36 21° SSE
SL-16 R/B 3.3 02:17:07 24° W 02:19:30 33° NW 02:24:39 10° NNE
Meteor 1-28 Rocket 3.1 02:20:07 69° SE 02:20:30 81° ENE 02:24:10 10° NNW
NOSS 2-2 (E) 3.8 02:19:11 10° NW 02:23:22 86° NE 02:29:14 10° SE
BREEZE-M DEB (TANK) 2.9 02:27:07 59° SSW 02:27:23 61° S 02:34:27 10° E
Cosmos 1726 1.8 02:24:15 10° N 02:27:28 71° ENE 02:27:30 70° E
USA 267 4.5 02:30:04 21° W 02:30:04 21° W 02:32:54 10° WNW
Okean 1 4.3 02:29:45 26° SE 02:31:22 39° E 02:34:57 10° NNE
ADEOS II 2.1 02:26:22 10° NNE 02:31:39 78° ESE 02:34:06 33° S
FENGYUN 3A 3.8 02:28:49 10° NNE 02:34:16 72° ESE 02:37:10 28° S
Meteor 1-14 Rocket 4.4 02:31:30 10° NNW 02:36:51 51° W 02:38:42 36° SSW
Cosmos 1461 2.6 02:33:34 10° NW 02:37:28 87° NE 02:41:17 10° SE
NOSS 2-2 (D) 3.7 02:33:39 10° NW 02:37:45 83° NE 02:43:28 10° SE
ATLAS 5 CENTAUR R/B 3.4 02:36:52 10° NW 02:41:00 36° NNE 02:46:01 10° E
SL-16 R/B 2.5 02:36:39 18° S 02:41:22 72° WSW 02:47:38 10° NNW
Meteor 2-6 Rocket 4.3 02:38:50 34° SSW 02:41:32 70° WNW 02:47:30 10° N
NOSS 2-3 (E) 4.4 02:37:17 10° NW 02:42:42 84° SW 02:50:09 10° SE
CZ-2D R/B 2.2 02:38:05 10° N 02:43:22 63° WNW 02:45:38 34° SW
RESURS DK-1 3.3 02:41:52 27° SSE 02:43:27 39° ESE 02:47:16 10° NE
Cosmos 1151 Rocket 4.4 02:40:50 13° SSE 02:44:15 35° E 02:48:12 10° NNE
Envisat 4.5 02:44:05 10° NNE 02:48:42 33° E 02:53:16 10° SSE
Cosmos 1842 Rocket 3.8 02:50:51 39° SW 02:52:11 55° WNW 02:56:34 10° N
Cosmos 1408 Rocket 3.6 02:48:11 10° NNW 02:52:24 57° W 02:53:56 36° SSW
IRAS Rocket 4.2 02:51:29 10° NNE 02:57:10 82° WNW 03:00:34 25° SSW
Cosmos 1975 4.3 02:54:46 10° N 02:58:23 36° ENE 03:01:57 10° SE
Cosmos 375 4.2 02:55:56 10° NW 02:59:43 72° SW 03:04:13 10° SE
Cosmos 1943 Rocket 2.3 02:55:09 10° NNW 03:00:51 79° ENE 03:06:33 10° SE
Meteor 1-27 Rocket 3.9 02:56:58 16° S 03:01:37 73° E 03:07:19 10° NNE
Cosmos 1340 4.3 02:58:56 10° N 03:02:03 31° ENE 03:05:09 10° SE
COSMOS 2428 2.7 03:04:40 26° SW 03:07:59 78° WNW 03:13:44 10° NNE
Cosmos 1805 Rocket 3.5 03:04:34 10° NNW 03:08:53 63° W 03:11:53 19° S
CZ-4 R/B 4.4 03:04:23 10° NNE 03:09:06 55° E 03:13:28 11° S
Cosmos 1500 Rocket 3.7 03:05:09 10° NNW 03:09:29 52° W 03:12:00 23° SSW
Meteor 1-10 Rocket 4.4 03:06:03 23° SSW 03:09:54 70° WNW 03:15:51 10° N
UNK 3.8 03:07:30 19° S 03:10:38 55° W 03:15:11 10° NNW
Meteor 1-11 Rocket 3.9 03:06:44 10° NNW 03:12:10 52° W 03:16:27 16° SSW
Cosmos 1666 Rocket 4.3 03:08:01 10° N 03:12:26 55° ENE 03:16:48 10° SSE
CZ-2C R/B 3.6 03:12:51 24° WSW 03:14:30 28° W 03:19:08 10° NNW
Cosmos 2237 Rocket 2.7 03:11:13 15° S 03:15:50 58° ESE 03:21:25 10° NE
AQUA 4.1 03:12:22 10° N 03:16:59 52° WNW 03:19:38 24° SW
Cosmos 1980 4.1 03:12:33 16° S 03:17:03 62° ESE 03:22:39 10° NE
CZ-2C R/B 3.3 03:12:23 10° N 03:17:16 52° WNW 03:20:25 22° SW
Cosmos 2221 4.3 03:16:57 15° W 03:18:03 17° WNW 03:20:52 10° NNW
Cosmos 1867 4.2 03:13:22 10° NW 03:18:14 33° WSW 03:23:05 10° S
Cosmos 2369 Rocket 4.0 03:13:38 10° NNW 03:18:45 34° NE 03:23:49 10° ESE
Intercosmos 25 Rocket 3.7 03:16:25 10° N 03:19:39 59° ENE 03:23:51 10° SSE
Cosmos 2322 4.1 03:20:27 22° WSW 03:24:03 53° NW 03:29:42 10° NNE
Resurs 1-4 Rocket 3.1 03:19:25 10° N 03:24:04 31° WNW 03:26:58 19° WSW
Meteor 2-9 Rocket 4.2 03:19:24 10° NNW 03:24:37 53° W 03:29:54 10° S
NOSS 2-2 (C) 4.0 03:20:47 10° NW 03:24:57 52° SW 03:30:44 10° SSE
ALOS 2.3 03:21:05 10° N 03:25:41 64° WNW 03:28:56 19° SSW
Lacrosse 5 2.3 03:23:58 17° W 03:27:54 60° NNW 03:32:59 10° ENE
Cosmos 2195 Rocket 4.5 03:23:07 13° SSW 03:28:46 73° WNW 03:35:03 10° N
DMSP B5D2-2 4.4 03:24:58 10° SSE 03:30:08 70° ENE 03:35:19 10° N
Lacrosse 4 Rocket 4.0 03:30:13 10° NNW 03:31:02 10° NNW 03:31:51 10° N
Cosmos 1733 3.3 03:27:34 10° NNW 03:31:04 47° W 03:33:43 16° SSW
Cosmos 44 Rocket 4.1 03:27:36 18° WSW 03:31:09 46° NW 03:36:07 10° NE
Cosmos 2333 Rocket 3.7 03:28:52 12° W 03:32:57 26° NW 03:37:39 10° NNE
USA 215 3.7 03:26:53 10° ENE 03:33:18 60° N 03:39:43 10° W
Nadezhda 4 Rocket 4.4 03:30:19 18° SW 03:34:37 45° WNW 03:40:29 10° N
Sich 1 3.6 03:31:20 10° NNW 03:35:11 35° W 03:37:58 17° SSW
BlueWalker 3 2.4 03:32:32 15° W 03:35:17 39° SSW 03:38:51 10° SE
YAOGAN 6 3.2 03:32:48 10° NNE 03:36:00 48° E 03:39:10 10° S
IRS-1D 4.1 03:31:55 10° NNE 03:36:56 57° ESE 03:41:59 10° S
Cosmos 2360 Rocket 3.9 03:33:23 10° W 03:37:45 22° NW 03:42:08 10° NNE
NOSS 0 Rocket 3.9 03:36:15 16° SW 03:41:21 79° NW 03:47:33 10° NNE
Cosmos 1743 Rocket 4.3 03:39:35 10° NNW 03:43:26 31° W 03:46:31 14° SSW
USA 290 3.5 03:40:33 10° NNW 03:43:32 41° ENE 03:46:28 10° SE
IDEFIX/ARIANE 42P 4.2 03:40:26 10° N 03:44:05 20° NW 03:47:15 12° W
Cosmos 2278 Rocket 2.8 03:39:05 10° NW 03:44:10 34° WSW 03:49:13 10° S
Cosmos 1536 4.3 03:42:41 10° NW 03:45:21 18° W 03:46:20 16° WSW
NOSS 3-1 (C) 4.1 03:39:17 10° NW 03:46:18 87° NE 03:54:59 10° SE
Cosmos 1328 Rocket 4.0 03:42:19 10° S 03:46:41 66° E 03:51:06 10° NNE
Cosmos 1340 Rocket 2.8 03:43:34 10° S 03:47:24 82° ESE 03:51:18 10° NNE
Cosmos 2322 Rocket 4.2 03:44:21 10° WNW 03:48:09 18° NNW 03:51:57 10° NNE
Cosmos 1805 3.2 03:46:20 10° NNW 03:49:58 53° W 03:53:34 10° S
Cosmos 1633 Rocket 3.0 03:46:25 10° NNW 03:50:46 79° W 03:55:06 10° S
Cosmos 1680 Rocket 3.6 03:47:27 10° SSW 03:52:45 81° ESE 03:58:06 10° NNE
Cosmos 1553 Rocket 4.0 03:47:17 10° NNW 03:53:37 76° W 03:59:48 10° S
GP-B 4.3 03:51:28 10° NNW 03:55:03 25° WNW 03:57:55 13° WSW
Cosmos 2219 Rocket 3.5 03:50:45 11° W 03:55:14 27° NW 03:59:57 10° NNE
NOSS 3-4 (A) 4.3 03:51:15 10° W 03:56:39 40° NNW 04:02:44 10° NE
NOSS 3-4 (C) 4.3 03:51:18 10° W 03:56:42 40° NNW 04:02:48 10° NE
Cosmos 1420 Rocket 4.1 03:52:11 10° NNW 03:57:17 53° WSW 04:02:24 10° S
Gbstr 26 Del rocket 2.7 03:56:05 14° WSW 03:59:35 75° SSE 04:03:20 10° E
Cosmos 2056 Rocket 3.6 03:55:40 10° NNW 04:00:57 59° WSW 04:06:15 10° S
METEOR-M 4.2 03:56:14 10° N 04:01:33 67° WNW 04:06:49 10° SSW
SL-16 R/B 4.4 04:02:35 10° NW 04:05:27 14° NNW 04:08:20 10° NNE
EO 1 Delta rocket 4.4 04:01:20 10° N 04:05:48 40° WNW 04:10:07 10° SW
SL-16 R/B 3.2 04:00:55 10° S 04:06:17 46° ESE 04:11:41 10° NE
Cosmos 1452 Rocket 4.2 04:02:50 10° NNW 04:08:04 60° ENE 04:13:15 10° SE
ATLAS 3B R/B 3.4 04:01:02 10° NW 04:08:49 73° NE 04:16:37 10° SE
CZ-2C R/B 2.6 04:04:18 10° NNE 04:09:27 73° WNW 04:14:35 10° SSW
Cosmos 1656 Rocket 3.8 04:04:43 10° NNW 04:10:10 77° ENE 04:15:35 10° SE
PAYLOAD A 3.9 04:05:38 10° NNE 04:10:40 80° WNW 04:15:29 10° SSW
ADEOS II 3.5 04:06:49 10° N 04:10:45 22° NW 04:14:41 10° WSW
Cosmos 1624 Rocket 4.2 04:08:21 10° NW 04:13:23 47° WSW 04:18:20 10° S
Cosmos 1461 4.4 04:13:13 10° W 04:15:09 14° WSW 04:17:06 10° SW
Cosmos 1092 Rocket 4.5 04:11:51 10° SW 04:17:36 41° WNW 04:23:25 10° N
Iridium 51 3.8 04:14:46 10° S 04:18:08 82° W 04:21:30 10° N
RESURS DK-1 3.4 04:17:39 10° WSW 04:21:18 31° NW 04:24:58 10° NNE
Cosmos 1151 Rocket 4.0 04:18:01 10° SW 04:21:47 29° WNW 04:25:35 10° N
Meteor 2-12 Rocket 4.4 04:15:52 10° SSW 04:21:55 77° WNW 04:28:01 10° N
CZ-2D R/B 4.1 04:19:39 10° NNW 04:22:27 15° NW 04:25:16 10° W
ATLAS 5 CENTAUR R/B 2.0 04:20:30 10° NW 04:25:15 67° SW 04:31:10 10° SSE
SL-16 R/B 4.1 04:22:46 10° WSW 04:26:06 15° W 04:29:28 10° NW
Cosmos 1939 Rocket 4.3 04:23:18 10° NNE 04:26:52 39° E 04:30:25 10° SSE
Envisat 3.5 04:22:59 10° N 04:27:46 43° WNW 04:32:32 10° SW
Cosmos 923 Rocket 4.5 04:23:09 10° SW 04:28:11 46° WNW 04:33:18 10° NNE
Cosmos 1766 3.2 04:26:02 10° NNW 04:29:41 56° W 04:33:17 10° S
